User: anonymous   Login
Location: Goheenville
(40.9070°N, 79.3720°W)
Time: 13:59:17
(UTC-04:00)
Language:

Meteor 2-10 Rocket - Orbit

View from above orbital plane
View from above orbital plane
View from above satellite
View from above satellite

Ground track
Ground track

The orbit data is extracted from the following two-line orbital elements,

1 14453U 83109B   17116.69735814 +.00000067 +00000-0 +22197-4 0  9995
2 14453 081.1660 158.1069 0104460 212.0789 147.4006 14.24672047740128
Epoch (UTC): 26 April 2017 16:44:11
Eccentricity: 0.0104460
inclination: 81.1660°
perigee height: 734 km
apogee height: 884 km
right ascension of ascending node: 158.1069°
argument of perigee: 212.0789°
revolutions per day: 14.24672047
mean anomaly at epoch: 147.4006°
orbit number at epoch: 74012

The dashed part of the orbit path shows where the satellite is in the earth's shadow,  

DLR